Language: 


Des rapports , des résumés tant et plus, au choix de chacun....


Données statistiques de la station
Quotidien Rapport Avril 30, 2017 Unités:  Métrique    Anglais   les deux
« Précédent Jour
Suivant Jour »
Quotidien Hebdomadaire Mensuel Annuel Actuel
  Haut: Bas: Moyen:
Température: 21.8 °C 4.5 °C 13.9 °C
Pt de rosée: 7.0 °C 0.0 °C 2.8 °C
Humidité: 74 % 31 % 49 %
Vitesse du vent: 34.3 km/h 0.0 km/h 10.3 km/h
Rafales: 41.7 km/h - -
Vent:- - SE
Pression: 1013.1 hPa 997.9 hPa -
Précipitation: 0.0 mm    
Historical Graphs
 
 
Données statistiques pour Avril 30, 2017
Heure Température Point de rosée Pression Vent Vitesse du vent Refales Humidité Pluie (taux horaire)
00:00 9.4 °C 1.0 °C 1013.1 hPa East 6.1 km/h 13.7 km/h 53 % 0.0 mm
00:05 9.3 °C 1.0 °C 1013.1 hPa East 9.3 km/h 10.5 km/h 54 % 0.0 mm
00:10 9.1 °C 1.0 °C 1013.1 hPa East 8.7 km/h 9.7 km/h 54 % 0.0 mm
00:15 9.0 °C 1.0 °C 1013.1 hPa East 7.6 km/h 13.7 km/h 55 % 0.0 mm
00:20 8.9 °C 1.0 °C 1013.1 hPa ENE 10.5 km/h 13.7 km/h 55 % 0.0 mm
00:25 8.9 °C 1.0 °C 1013.1 hPa East 6.4 km/h 10.8 km/h 55 % 0.0 mm
00:30 8.7 °C 1.0 °C 1013.1 hPa East 9.0 km/h 10.8 km/h 56 % 0.0 mm
00:35 8.7 °C 1.0 °C 1013.1 hPa East 9.3 km/h 10.8 km/h 56 % 0.0 mm
00:40 8.6 °C 1.0 °C 1012.1 hPa ESE 6.1 km/h 11.9 km/h 56 % 0.0 mm
00:45 8.5 °C 1.0 °C 1012.1 hPa East 9.0 km/h 11.9 km/h 57 % 0.0 mm
00:50 8.4 °C 1.0 °C 1012.1 hPa ENE 9.0 km/h 10.5 km/h 57 % 0.0 mm
00:55 8.3 °C 1.0 °C 1012.1 hPa ENE 6.4 km/h 9.3 km/h 58 % 0.0 mm
01:00 8.2 °C 1.0 °C 1012.1 hPa NE 6.4 km/h 11.1 km/h 58 % 0.0 mm
01:05 8.1 °C 1.0 °C 1012.1 hPa East 5.5 km/h 11.1 km/h 59 % 0.0 mm
01:10 8.0 °C 1.0 °C 1011.1 hPa East 6.9 km/h 10.5 km/h 59 % 0.0 mm
01:15 8.0 °C 1.0 °C 1011.1 hPa East 6.4 km/h 11.6 km/h 59 % 0.0 mm
01:20 8.0 °C 1.0 °C 1011.1 hPa East 6.9 km/h 11.6 km/h 60 % 0.0 mm
01:25 7.9 °C 1.0 °C 1011.1 hPa ENE 6.1 km/h 11.6 km/h 60 % 0.0 mm
01:30 7.9 °C 1.0 °C 1011.1 hPa East 9.0 km/h 9.7 km/h 60 % 0.0 mm
01:35 7.9 °C 1.0 °C 1011.1 hPa East 5.0 km/h 11.6 km/h 60 % 0.0 mm
01:41 7.9 °C 1.0 °C 1011.1 hPa East 12.6 km/h 12.6 km/h 61 % 0.0 mm
01:46 7.9 °C 1.0 °C 1011.1 hPa East 8.7 km/h 12.6 km/h 61 % 0.0 mm
01:51 7.9 °C 1.0 °C 1011.1 hPa ESE 7.9 km/h 11.6 km/h 61 % 0.0 mm
01:56 7.9 °C 1.0 °C 1010.0 hPa East 10.5 km/h 11.9 km/h 61 % 0.0 mm
01:57 7.9 °C 1.0 °C 1010.0 hPa East 9.0 km/h 12.2 km/h 61 % 0.0 mm
02:02 7.8 °C 1.0 °C 1010.0 hPa ESE 10.1 km/h 12.2 km/h 61 % 0.0 mm
02:07 7.9 °C 1.0 °C 1011.1 hPa East 6.1 km/h 11.6 km/h 61 % 0.0 mm
02:12 7.8 °C 1.0 °C 1011.1 hPa NE 9.0 km/h 12.6 km/h 61 % 0.0 mm
02:17 7.8 °C 1.0 °C 1011.1 hPa East 8.7 km/h 12.6 km/h 61 % 0.0 mm
02:22 7.7 °C 1.0 °C 1011.1 hPa ENE 7.9 km/h 12.2 km/h 61 % 0.0 mm
02:27 7.6 °C 1.0 °C 1011.1 hPa East 5.8 km/h 11.6 km/h 61 % 0.0 mm
02:32 7.5 °C 1.0 °C 1011.1 hPa ENE 5.0 km/h 11.6 km/h 61 % 0.0 mm
02:37 7.4 °C 0.0 °C 1011.1 hPa East 6.4 km/h 10.5 km/h 61 % 0.0 mm
02:42 7.3 °C 0.0 °C 1011.1 hPa East 5.8 km/h 9.7 km/h 61 % 0.0 mm
02:47 7.1 °C 0.0 °C 1011.1 hPa East 4.3 km/h 6.4 km/h 61 % 0.0 mm
02:52 7.0 °C 0.0 °C 1011.1 hPa ESE 6.4 km/h 8.7 km/h 61 % 0.0 mm
02:57 6.9 °C 0.0 °C 1011.1 hPa ENE 5.8 km/h 8.7 km/h 62 % 0.0 mm
03:02 6.8 °C 0.0 °C 1011.1 hPa East 5.8 km/h 8.7 km/h 62 % 0.0 mm
03:07 6.6 °C 0.0 °C 1011.1 hPa ENE 4.0 km/h 8.7 km/h 63 % 0.0 mm
03:12 6.5 °C 0.0 °C 1011.1 hPa ENE 6.1 km/h 6.4 km/h 63 % 0.0 mm
03:17 6.3 °C 0.0 °C 1011.1 hPa East 6.4 km/h 6.4 km/h 63 % 0.0 mm
03:22 6.3 °C 0.0 °C 1011.1 hPa NE 5.0 km/h 7.6 km/h 63 % 0.0 mm
03:27 6.2 °C 0.0 °C 1010.0 hPa ENE 6.9 km/h 8.7 km/h 64 % 0.0 mm
03:33 6.1 °C 0.0 °C 1010.0 hPa ENE 6.1 km/h 8.7 km/h 65 % 0.0 mm
03:37 6.1 °C 0.0 °C 1010.0 hPa ENE 5.5 km/h 7.9 km/h 65 % 0.0 mm
03:42 6.0 °C 0.0 °C 1010.0 hPa ENE 5.5 km/h 7.6 km/h 65 % 0.0 mm
03:47 6.0 °C 0.0 °C 1010.0 hPa ENE 6.1 km/h 7.9 km/h 65 % 0.0 mm
03:52 5.8 °C 0.0 °C 1010.0 hPa ENE 6.9 km/h 7.9 km/h 66 % 0.0 mm
03:58 5.7 °C 0.0 °C 1010.0 hPa ENE 6.9 km/h 8.7 km/h 66 % 0.0 mm
04:02 5.6 °C 0.0 °C 1010.0 hPa NE 5.5 km/h 8.7 km/h 67 % 0.0 mm
04:08 5.6 °C 0.0 °C 1009.0 hPa NE 7.2 km/h 8.7 km/h 67 % 0.0 mm
04:13 5.5 °C 1.0 °C 1009.0 hPa NE 7.9 km/h 9.0 km/h 68 % 0.0 mm
04:18 5.5 °C 1.0 °C 1009.0 hPa NE 6.9 km/h 9.3 km/h 68 % 0.0 mm
04:23 5.4 °C 0.0 °C 1009.0 hPa NE 5.0 km/h 9.3 km/h 68 % 0.0 mm
04:28 5.3 °C 0.0 °C 1009.0 hPa ENE 6.4 km/h 7.9 km/h 68 % 0.0 mm
04:33 5.4 °C 0.0 °C 1009.0 hPa ENE 5.8 km/h 9.0 km/h 69 % 0.0 mm
04:38 5.3 °C 1.0 °C 1009.0 hPa NNE 6.9 km/h 9.0 km/h 70 % 0.0 mm
04:43 5.3 °C 1.0 °C 1009.0 hPa ENE 6.1 km/h 7.6 km/h 70 % 0.0 mm
04:48 5.3 °C 1.0 °C 1009.0 hPa NE 5.0 km/h 7.6 km/h 70 % 0.0 mm
04:53 5.2 °C 0.0 °C 1008.0 hPa NE 6.1 km/h 7.6 km/h 70 % 0.0 mm
04:58 5.2 °C 0.0 °C 1008.0 hPa East 6.4 km/h 8.7 km/h 70 % 0.0 mm
05:03 5.2 °C 0.0 °C 1008.0 hPa NE 6.1 km/h 8.7 km/h 70 % 0.0 mm
05:08 5.2 °C 0.0 °C 1009.0 hPa ENE 5.8 km/h 9.7 km/h 70 % 0.0 mm
05:13 5.2 °C 0.0 °C 1009.0 hPa NE 5.5 km/h 9.7 km/h 70 % 0.0 mm
05:18 5.1 °C 0.0 °C 1009.0 hPa NE 5.0 km/h 7.9 km/h 70 % 0.0 mm
05:23 5.1 °C 0.0 °C 1009.0 hPa NE 6.4 km/h 7.9 km/h 70 % 0.0 mm
05:28 5.0 °C 0.0 °C 1009.0 hPa ENE 5.0 km/h 7.9 km/h 70 % 0.0 mm
05:33 5.0 °C 1.0 °C 1009.0 hPa East 5.0 km/h 7.9 km/h 71 % 0.0 mm
05:38 4.9 °C 0.0 °C 1009.0 hPa ENE 6.1 km/h 7.9 km/h 71 % 0.0 mm
05:43 4.8 °C 0.0 °C 1009.0 hPa ENE 5.5 km/h 6.9 km/h 71 % 0.0 mm
05:48 4.8 °C 0.0 °C 1009.0 hPa NE 6.9 km/h 9.0 km/h 71 % 0.0 mm
05:53 4.8 °C 0.0 °C 1009.0 hPa ENE 5.0 km/h 9.0 km/h 72 % 0.0 mm
05:58 4.6 °C 0.0 °C 1009.0 hPa ENE 6.4 km/h 6.9 km/h 71 % 0.0 mm
06:04 4.6 °C 0.0 °C 1009.0 hPa NE 4.3 km/h 6.4 km/h 72 % 0.0 mm
06:09 4.6 °C 0.0 °C 1009.0 hPa NE 5.0 km/h 7.2 km/h 72 % 0.0 mm
06:14 4.6 °C 0.0 °C 1009.0 hPa ENE 4.3 km/h 7.2 km/h 72 % 0.0 mm
06:19 4.5 °C 0.0 °C 1009.0 hPa NE 3.2 km/h 6.9 km/h 72 % 0.0 mm
06:24 4.5 °C 0.0 °C 1008.0 hPa NE 5.8 km/h 6.4 km/h 72 % 0.0 mm
06:29 4.5 °C 0.0 °C 1008.0 hPa NE 6.9 km/h 6.9 km/h 72 % 0.0 mm
06:34 4.5 °C 0.0 °C 1008.0 hPa ENE 5.0 km/h 6.9 km/h 72 % 0.0 mm
06:39 4.5 °C 0.0 °C 1008.0 hPa ESE 4.0 km/h 6.9 km/h 73 % 0.0 mm
06:44 4.6 °C 0.0 °C 1008.0 hPa East 5.0 km/h 6.9 km/h 73 % 0.0 mm
06:49 4.7 °C 0.0 °C 1008.0 hPa ESE 4.3 km/h 6.9 km/h 73 % 0.0 mm
06:54 4.8 °C 0.0 °C 1008.0 hPa ENE 5.8 km/h 9.3 km/h 73 % 0.0 mm
06:59 5.1 °C 1.0 °C 1008.0 hPa East 4.3 km/h 9.3 km/h 74 % 0.0 mm
07:04 5.4 °C 1.0 °C 1008.0 hPa East 9.3 km/h 9.7 km/h 74 % 0.0 mm
07:09 5.8 °C 2.0 °C 1008.0 hPa East 4.7 km/h 9.7 km/h 74 % 0.0 mm
07:14 6.2 °C 2.0 °C 1008.0 hPa SE 4.7 km/h 9.7 km/h 73 % 0.0 mm
07:19 6.6 °C 2.0 °C 1008.0 hPa East 4.0 km/h 9.0 km/h 73 % 0.0 mm
07:24 7.0 °C 3.0 °C 1007.0 hPa ESE 8.7 km/h 10.5 km/h 72 % 0.0 mm
07:29 7.3 °C 3.0 °C 1007.0 hPa ESE 9.3 km/h 12.2 km/h 71 % 0.0 mm
07:34 7.4 °C 2.0 °C 1007.0 hPa ESE 7.9 km/h 13.7 km/h 69 % 0.0 mm
07:39 7.9 °C 3.0 °C 1006.0 hPa ESE 12.2 km/h 13.7 km/h 68 % 0.0 mm
07:44 8.2 °C 3.0 °C 1006.0 hPa ENE 8.7 km/h 12.6 km/h 67 % 0.0 mm
07:49 8.5 °C 3.0 °C 1006.0 hPa ESE 7.9 km/h 13.7 km/h 66 % 0.0 mm
07:54 8.7 °C 3.0 °C 1007.0 hPa NNE 6.4 km/h 13.7 km/h 64 % 0.0 mm
07:59 9.2 °C 3.0 °C 1007.0 hPa ESE 11.1 km/h 15.8 km/h 63 % 0.0 mm
08:04 9.3 °C 3.0 °C 1007.0 hPa East 9.7 km/h 15.8 km/h 62 % 0.0 mm
08:09 9.8 °C 3.0 °C 1008.0 hPa ENE 8.7 km/h 14.3 km/h 60 % 0.0 mm
08:14 10.1 °C 3.0 °C 1008.0 hPa ENE 10.5 km/h 16.6 km/h 59 % 0.0 mm
08:19 10.3 °C 2.0 °C 1008.0 hPa SE 12.2 km/h 16.6 km/h 57 % 0.0 mm
08:25 10.3 °C 2.0 °C 1007.0 hPa ESE 13.0 km/h 16.3 km/h 56 % 0.0 mm
08:30 10.3 °C 2.0 °C 1007.0 hPa ESE 5.8 km/h 16.9 km/h 55 % 0.0 mm
08:35 10.5 °C 2.0 °C 1007.0 hPa ESE 9.0 km/h 21.2 km/h 55 % 0.0 mm
08:40 11.0 °C 2.0 °C 1007.0 hPa ESE 12.2 km/h 21.2 km/h 54 % 0.0 mm
08:45 11.4 °C 3.0 °C 1007.0 hPa ESE 13.0 km/h 20.1 km/h 54 % 0.0 mm
08:50 11.6 °C 3.0 °C 1007.0 hPa ESE 13.7 km/h 16.9 km/h 53 % 0.0 mm
08:55 12.1 °C 3.0 °C 1006.0 hPa ESE 17.7 km/h 17.7 km/h 52 % 0.0 mm
09:00 12.3 °C 3.0 °C 1006.0 hPa ESE 15.8 km/h 24.8 km/h 51 % 0.0 mm
09:05 12.5 °C 3.0 °C 1006.0 hPa ENE 11.6 km/h 24.8 km/h 50 % 0.0 mm
09:10 12.9 °C 3.0 °C 1006.0 hPa SSE 10.1 km/h 20.9 km/h 50 % 0.0 mm
09:15 13.1 °C 3.0 °C 1006.0 hPa SE 20.1 km/h 20.9 km/h 49 % 0.0 mm
09:20 13.2 °C 3.0 °C 1006.0 hPa SE 10.1 km/h 20.6 km/h 48 % 0.0 mm
09:25 13.5 °C 3.0 °C 1006.0 hPa ESE 13.0 km/h 20.6 km/h 48 % 0.0 mm
09:30 13.5 °C 3.0 °C 1006.0 hPa ESE 27.0 km/h 32.0 km/h 47 % 0.0 mm
09:35 13.8 °C 3.0 °C 1006.0 hPa ENE 20.9 km/h 32.0 km/h 47 % 0.0 mm
09:40 14.0 °C 3.0 °C 1006.0 hPa SSE 19.5 km/h 28.5 km/h 47 % 0.0 mm
09:45 14.2 °C 3.0 °C 1006.0 hPa East 11.6 km/h 28.5 km/h 47 % 0.0 mm
09:50 14.5 °C 4.0 °C 1006.0 hPa ESE 17.7 km/h 25.6 km/h 47 % 0.0 mm
09:55 14.7 °C 3.0 °C 1005.0 hPa ENE 15.8 km/h 21.6 km/h 46 % 0.0 mm
10:00 15.2 °C 4.0 °C 1005.0 hPa East 16.6 km/h 22.4 km/h 46 % 0.0 mm
10:05 15.4 °C 4.0 °C 1005.0 hPa SE 12.6 km/h 27.0 km/h 45 % 0.0 mm
10:10 15.7 °C 4.0 °C 1003.9 hPa East 14.0 km/h 27.0 km/h 45 % 0.0 mm
10:15 15.6 °C 4.0 °C 1003.9 hPa SE 9.3 km/h 20.1 km/h 45 % 0.0 mm
10:20 15.9 °C 4.0 °C 1005.0 hPa SE 12.2 km/h 18.0 km/h 45 % 0.0 mm
10:23 16.2 °C 4.0 °C 1005.0 hPa SE 13.7 km/h 28.8 km/h 44 % 0.0 mm
10:28 16.1 °C 4.0 °C 1005.0 hPa SE 12.2 km/h 28.8 km/h 44 % 0.0 mm
10:33 15.5 °C 4.0 °C 1005.0 hPa East 11.9 km/h 27.4 km/h 44 % 0.0 mm
10:38 15.5 °C 4.0 °C 1005.0 hPa SE 24.5 km/h 24.5 km/h 44 % 0.0 mm
10:43 16.2 °C 4.0 °C 1005.0 hPa ESE 14.8 km/h 24.5 km/h 44 % 0.0 mm
10:48 16.7 °C 4.0 °C 1005.0 hPa SE 17.2 km/h 24.8 km/h 43 % 0.0 mm
10:54 16.6 °C 4.0 °C 1005.0 hPa SE 19.5 km/h 28.5 km/h 43 % 0.0 mm
10:59 16.7 °C 4.0 °C 1005.0 hPa SSE 12.2 km/h 28.5 km/h 42 % 0.0 mm
11:04 16.6 °C 3.0 °C 1005.0 hPa ESE 24.5 km/h 24.8 km/h 41 % 0.0 mm
11:09 17.2 °C 4.0 °C 1005.0 hPa SE 16.6 km/h 27.7 km/h 41 % 0.0 mm
11:14 17.5 °C 4.0 °C 1005.0 hPa SE 12.2 km/h 27.7 km/h 40 % 0.0 mm
11:19 17.9 °C 4.0 °C 1005.0 hPa SSE 15.8 km/h 24.8 km/h 40 % 0.0 mm
11:24 18.1 °C 4.0 °C 1003.9 hPa SSE 6.9 km/h 27.7 km/h 39 % 0.0 mm
11:29 18.2 °C 4.0 °C 1003.9 hPa SSE 17.7 km/h 27.7 km/h 39 % 0.0 mm
11:34 17.5 °C 3.0 °C 1003.9 hPa ESE 16.9 km/h 24.8 km/h 38 % 0.0 mm
11:39 17.5 °C 3.0 °C 1002.9 hPa SSE 16.9 km/h 28.5 km/h 38 % 0.0 mm
11:44 18.0 °C 3.0 °C 1002.9 hPa SSE 28.5 km/h 38.1 km/h 38 % 0.0 mm
11:49 18.7 °C 4.0 °C 1002.9 hPa SSE 16.6 km/h 38.1 km/h 38 % 0.0 mm
11:54 19.0 °C 4.0 °C 1002.9 hPa SE 19.8 km/h 28.5 km/h 38 % 0.0 mm
11:59 19.1 °C 4.0 °C 1002.9 hPa SSE 17.7 km/h 28.5 km/h 37 % 0.0 mm
12:04 19.1 °C 4.0 °C 1002.9 hPa South 17.7 km/h 36.0 km/h 36 % 0.0 mm
12:09 19.0 °C 4.0 °C 1002.9 hPa SSE 18.0 km/h 36.0 km/h 36 % 0.0 mm
12:14 19.2 °C 4.0 °C 1002.9 hPa SSE 9.3 km/h 28.0 km/h 36 % 0.0 mm
12:19 19.7 °C 4.0 °C 1002.9 hPa SE 18.0 km/h 25.9 km/h 36 % 0.0 mm
12:24 19.6 °C 4.0 °C 1002.9 hPa SE 20.1 km/h 28.5 km/h 36 % 0.0 mm
12:29 19.5 °C 4.0 °C 1002.9 hPa East 14.0 km/h 28.5 km/h 36 % 0.0 mm
12:34 19.5 °C 4.0 °C 1002.9 hPa SSE 17.7 km/h 24.5 km/h 35 % 0.0 mm
12:39 19.8 °C 4.0 °C 1002.9 hPa SE 10.5 km/h 24.8 km/h 36 % 0.0 mm
12:44 20.1 °C 4.0 °C 1002.9 hPa ESE 19.5 km/h 24.8 km/h 34 % 0.0 mm
12:49 19.7 °C 3.0 °C 1002.9 hPa South 10.5 km/h 24.5 km/h 34 % 0.0 mm
12:54 19.7 °C 3.0 °C 1002.9 hPa SSE 25.9 km/h 30.6 km/h 34 % 0.0 mm
13:00 19.3 °C 3.0 °C 1002.9 hPa SE 19.5 km/h 30.6 km/h 34 % 0.0 mm
13:05 20.0 °C 4.0 °C 1002.9 hPa SSE 7.9 km/h 25.6 km/h 34 % 0.0 mm
13:10 20.3 °C 4.0 °C 1002.9 hPa SSE 34.3 km/h 37.8 km/h 34 % 0.0 mm
13:15 19.9 °C 4.0 °C 1002.9 hPa SSE 20.1 km/h 37.8 km/h 34 % 0.0 mm
13:20 19.6 °C 3.0 °C 1002.9 hPa SSE 24.5 km/h 35.2 km/h 34 % 0.0 mm
13:25 19.8 °C 3.0 °C 1002.9 hPa SE 20.9 km/h 35.2 km/h 34 % 0.0 mm
13:30 19.6 °C 3.0 °C 1002.9 hPa SE 24.8 km/h 34.6 km/h 34 % 0.0 mm
13:35 19.9 °C 4.0 °C 1002.9 hPa SSE 11.6 km/h 34.6 km/h 34 % 0.0 mm
13:40 19.6 °C 3.0 °C 1001.9 hPa South 23.8 km/h 27.7 km/h 33 % 0.0 mm
13:45 19.8 °C 3.0 °C 1001.9 hPa South 17.2 km/h 28.5 km/h 33 % 0.0 mm
13:50 19.8 °C 3.0 °C 1001.9 hPa SE 23.3 km/h 28.8 km/h 33 % 0.0 mm
13:55 19.4 °C 3.0 °C 1001.9 hPa SSE 24.8 km/h 28.0 km/h 33 % 0.0 mm
14:00 19.8 °C 3.0 °C 1001.9 hPa SSE 14.0 km/h 28.0 km/h 33 % 0.0 mm
14:05 20.4 °C 4.0 °C 1001.9 hPa SSE 20.1 km/h 24.8 km/h 33 % 0.0 mm
14:10 20.6 °C 4.0 °C 1001.9 hPa SSE 19.8 km/h 28.0 km/h 33 % 0.0 mm
14:15 20.4 °C 4.0 °C 1001.9 hPa South 13.7 km/h 31.7 km/h 33 % 0.0 mm
14:20 20.4 °C 4.0 °C 1001.9 hPa SE 30.6 km/h 35.2 km/h 33 % 0.0 mm
14:25 20.1 °C 3.0 °C 1001.9 hPa SSE 16.9 km/h 39.3 km/h 32 % 0.0 mm
14:30 20.1 °C 3.0 °C 1001.9 hPa South 8.7 km/h 39.3 km/h 32 % 0.0 mm
14:35 20.1 °C 3.0 °C 1001.9 hPa SE 23.8 km/h 38.1 km/h 32 % 0.0 mm
14:40 20.6 °C 3.0 °C 1001.9 hPa SSE 20.1 km/h 38.1 km/h 32 % 0.0 mm
14:45 20.2 °C 3.0 °C 1001.9 hPa SE 13.7 km/h 40.4 km/h 32 % 0.0 mm
14:50 20.0 °C 3.0 °C 1000.9 hPa SSE 21.2 km/h 41.7 km/h 32 % 0.0 mm
14:55 20.2 °C 3.0 °C 1000.9 hPa South 16.3 km/h 41.7 km/h 32 % 0.0 mm
15:00 20.0 °C 3.0 °C 1000.9 hPa SSE 27.4 km/h 32.0 km/h 32 % 0.0 mm
15:05 20.0 °C 3.0 °C 1000.9 hPa SW 16.9 km/h 39.3 km/h 32 % 0.0 mm
15:10 20.0 °C 3.0 °C 1000.9 hPa SSE 14.0 km/h 39.3 km/h 32 % 0.0 mm
15:15 20.2 °C 3.0 °C 1000.9 hPa SSE 19.8 km/h 36.7 km/h 32 % 0.0 mm
15:20 20.6 °C 3.0 °C 1000.9 hPa SSW 8.7 km/h 36.7 km/h 32 % 0.0 mm
15:25 20.8 °C 3.0 °C 1000.9 hPa SSE 13.0 km/h 27.4 km/h 32 % 0.0 mm
15:31 20.8 °C 3.0 °C 1000.9 hPa SSE 17.2 km/h 33.5 km/h 32 % 0.0 mm
15:36 20.6 °C 3.0 °C 999.9 hPa SSW 16.9 km/h 33.5 km/h 31 % 0.0 mm
15:41 21.2 °C 4.0 °C 999.9 hPa SE 10.1 km/h 24.5 km/h 32 % 0.0 mm
15:46 21.5 °C 4.0 °C 999.9 hPa SSE 11.6 km/h 28.0 km/h 32 % 0.0 mm
15:51 21.8 °C 4.0 °C 1000.9 hPa SSE 17.2 km/h 28.0 km/h 32 % 0.0 mm
15:56 21.6 °C 4.0 °C 1000.9 hPa SSW 20.6 km/h 27.7 km/h 32 % 0.0 mm
16:01 21.2 °C 4.0 °C 1000.9 hPa SE 22.4 km/h 27.7 km/h 32 % 0.0 mm
16:06 21.1 °C 3.0 °C 1000.9 hPa SSE 20.6 km/h 25.6 km/h 31 % 0.0 mm
16:11 21.1 °C 4.0 °C 1000.9 hPa SE 20.1 km/h 24.8 km/h 32 % 0.0 mm
16:16 21.2 °C 4.0 °C 1000.9 hPa South 15.4 km/h 20.9 km/h 32 % 0.0 mm
16:21 21.3 °C 4.0 °C 1000.9 hPa SSE 16.9 km/h 22.7 km/h 32 % 0.0 mm
16:26 21.1 °C 3.0 °C 1000.9 hPa SSE 9.7 km/h 24.5 km/h 31 % 0.0 mm
16:31 21.3 °C 4.0 °C 1000.9 hPa South 14.3 km/h 24.5 km/h 32 % 0.0 mm
16:36 21.0 °C 3.0 °C 1000.9 hPa SSE 6.9 km/h 22.7 km/h 31 % 0.0 mm
16:41 20.8 °C 3.0 °C 1000.9 hPa SSE 15.4 km/h 19.5 km/h 31 % 0.0 mm
16:46 20.6 °C 3.0 °C 1000.9 hPa SSE 10.1 km/h 20.6 km/h 32 % 0.0 mm
16:51 20.5 °C 3.0 °C 999.9 hPa SSW 16.6 km/h 20.6 km/h 31 % 0.0 mm
16:56 20.4 °C 3.0 °C 999.9 hPa South 9.7 km/h 24.5 km/h 31 % 0.0 mm
17:01 20.3 °C 3.0 °C 999.9 hPa SSE 12.6 km/h 30.9 km/h 31 % 0.0 mm
17:07 20.2 °C 3.0 °C 999.9 hPa South 10.5 km/h 30.9 km/h 31 % 0.0 mm
17:12 20.2 °C 3.0 °C 999.9 hPa South 17.7 km/h 23.8 km/h 32 % 0.0 mm
17:17 20.2 °C 3.0 °C 999.9 hPa South 15.4 km/h 24.5 km/h 31 % 0.0 mm
17:22 20.3 °C 3.0 °C 999.9 hPa South 12.2 km/h 24.5 km/h 32 % 0.0 mm
17:27 20.2 °C 3.0 °C 999.9 hPa South 9.7 km/h 23.3 km/h 32 % 0.0 mm
17:32 20.2 °C 3.0 °C 999.9 hPa SSE 12.2 km/h 23.3 km/h 32 % 0.0 mm
17:37 20.2 °C 3.0 °C 999.9 hPa South 5.5 km/h 23.0 km/h 32 % 0.0 mm
17:42 20.2 °C 3.0 °C 999.9 hPa South 14.3 km/h 14.3 km/h 32 % 0.0 mm
17:47 20.2 °C 3.0 °C 999.9 hPa South 11.6 km/h 14.3 km/h 32 % 0.0 mm
17:52 20.1 °C 3.0 °C 998.9 hPa SE 17.2 km/h 17.2 km/h 32 % 0.0 mm
17:57 20.0 °C 3.0 °C 998.9 hPa SE 9.3 km/h 24.5 km/h 33 % 0.0 mm
17:58 20.0 °C 3.0 °C 998.9 hPa East 17.2 km/h 24.5 km/h 33 % 0.0 mm
18:03 20.3 °C 4.0 °C 998.9 hPa SE 9.0 km/h 24.5 km/h 33 % 0.0 mm
18:08 20.8 °C 4.0 °C 998.9 hPa SE 12.6 km/h 17.2 km/h 33 % 0.0 mm
18:13 20.7 °C 4.0 °C 998.9 hPa South 8.7 km/h 20.1 km/h 33 % 0.0 mm
18:18 20.4 °C 4.0 °C 998.9 hPa SSE 21.2 km/h 21.2 km/h 33 % 0.0 mm
18:23 20.1 °C 3.0 °C 998.9 hPa SE 28.5 km/h 32.3 km/h 33 % 0.0 mm
18:28 19.8 °C 3.0 °C 998.9 hPa South 3.2 km/h 32.3 km/h 33 % 0.0 mm
18:33 19.7 °C 3.0 °C 998.9 hPa SSE 7.9 km/h 19.5 km/h 33 % 0.0 mm
18:38 19.7 °C 3.0 °C 999.9 hPa SE 5.8 km/h 16.3 km/h 34 % 0.0 mm
18:43 19.5 °C 3.0 °C 999.9 hPa SE 12.6 km/h 13.7 km/h 34 % 0.0 mm
18:48 19.4 °C 3.0 °C 999.9 hPa SSE 16.6 km/h 20.1 km/h 34 % 0.0 mm
18:53 19.3 °C 3.0 °C 998.9 hPa SSE 17.7 km/h 20.1 km/h 34 % 0.0 mm
18:58 19.2 °C 3.0 °C 998.9 hPa SSE 10.5 km/h 17.7 km/h 34 % 0.0 mm
19:03 19.1 °C 3.0 °C 998.9 hPa SE 10.1 km/h 18.3 km/h 34 % 0.0 mm
19:08 19.0 °C 3.0 °C 997.9 hPa ESE 13.0 km/h 20.9 km/h 34 % 0.0 mm
19:13 19.0 °C 3.0 °C 997.9 hPa ESE 9.7 km/h 24.5 km/h 34 % 0.0 mm
19:18 18.9 °C 3.0 °C 997.9 hPa SSE 10.5 km/h 24.5 km/h 34 % 0.0 mm
19:24 18.8 °C 3.0 °C 998.9 hPa ESE 19.1 km/h 20.1 km/h 35 % 0.0 mm
19:29 18.7 °C 3.0 °C 998.9 hPa East 5.5 km/h 20.1 km/h 35 % 0.0 mm
19:34 18.5 °C 3.0 °C 998.9 hPa SSE 2.6 km/h 19.1 km/h 35 % 0.0 mm
19:39 18.4 °C 3.0 °C 998.9 hPa South 4.7 km/h 16.3 km/h 35 % 0.0 mm
19:44 18.3 °C 3.0 °C 998.9 hPa SSE 11.9 km/h 13.0 km/h 35 % 0.0 mm
19:49 18.3 °C 3.0 °C 998.9 hPa South 3.5 km/h 12.6 km/h 36 % 0.0 mm
19:54 18.2 °C 3.0 °C 998.9 hPa Calm   11.9 km/h 36 % 0.0 mm
19:59 18.0 °C 3.0 °C 998.9 hPa SSW 4.7 km/h 4.7 km/h 36 % 0.0 mm
20:04 17.9 °C 3.0 °C 998.9 hPa South 10.1 km/h 10.1 km/h 37 % 0.0 mm
20:09 17.9 °C 3.0 °C 998.9 hPa SSW 9.0 km/h 12.6 km/h 38 % 0.0 mm
20:14 17.7 °C 4.0 °C 998.9 hPa SW 10.1 km/h 12.6 km/h 39 % 0.0 mm
20:19 17.5 °C 4.0 °C 998.9 hPa South 9.3 km/h 10.5 km/h 40 % 0.0 mm
20:24 17.3 °C 4.0 °C 997.9 hPa SSW 5.8 km/h 9.3 km/h 41 % 0.0 mm
20:29 17.1 °C 4.0 °C 997.9 hPa SSW 6.1 km/h 9.3 km/h 42 % 0.0 mm
20:34 16.9 °C 5.0 °C 997.9 hPa Calm   10.5 km/h 44 % 0.0 mm
20:39 16.7 °C 5.0 °C 997.9 hPa South 8.7 km/h 10.5 km/h 45 % 0.0 mm
20:44 16.7 °C 5.0 °C 997.9 hPa SSW 5.0 km/h 16.9 km/h 46 % 0.0 mm
20:49 16.7 °C 5.0 °C 997.9 hPa Calm   16.9 km/h 46 % 0.0 mm
20:54 16.6 °C 5.0 °C 998.9 hPa SSW 3.2 km/h 16.9 km/h 46 % 0.0 mm
20:59 16.5 °C 5.0 °C 998.9 hPa Calm   4.7 km/h 46 % 0.0 mm
21:04 16.4 °C 5.0 °C 998.9 hPa SSW 4.7 km/h 7.9 km/h 46 % 0.0 mm
21:10 16.3 °C 5.0 °C 999.9 hPa Calm   7.9 km/h 46 % 0.0 mm
21:15 16.2 °C 5.0 °C 999.9 hPa South 2.6 km/h 4.0 km/h 47 % 0.0 mm
21:20 16.1 °C 5.0 °C 999.9 hPa Calm   4.3 km/h 47 % 0.0 mm
21:25 15.9 °C 5.0 °C 998.9 hPa South 5.5 km/h 5.5 km/h 48 % 0.0 mm
21:30 15.9 °C 5.0 °C 998.9 hPa SW 9.0 km/h 9.0 km/h 48 % 0.0 mm
21:35 16.0 °C 5.0 °C 998.9 hPa South 1.4 km/h 11.6 km/h 48 % 0.0 mm
21:40 15.9 °C 5.0 °C 999.9 hPa Calm   11.6 km/h 48 % 0.0 mm
21:45 15.8 °C 5.0 °C 999.9 hPa Calm   9.7 km/h 49 % 0.0 mm
21:50 15.7 °C 5.0 °C 999.9 hPa SSE 4.0 km/h 6.4 km/h 49 % 0.0 mm
21:55 15.6 °C 5.0 °C 998.9 hPa Calm   6.4 km/h 49 % 0.0 mm
22:00 15.5 °C 5.0 °C 998.9 hPa Calm   5.0 km/h 49 % 0.0 mm
22:05 15.3 °C 5.0 °C 998.9 hPa Calm     50 % 0.0 mm
22:10 15.1 °C 5.0 °C 998.9 hPa Calm     50 % 0.0 mm
22:15 15.1 °C 5.0 °C 998.9 hPa Calm     51 % 0.0 mm
22:20 14.9 °C 6.0 °C 998.9 hPa Calm     52 % 0.0 mm
22:25 14.7 °C 5.0 °C 998.9 hPa Calm     52 % 0.0 mm
22:30 14.6 °C 6.0 °C 998.9 hPa Calm   2.6 km/h 53 % 0.0 mm
22:35 14.4 °C 5.0 °C 998.9 hPa Calm   2.6 km/h 53 % 0.0 mm
22:40 14.4 °C 5.0 °C 998.9 hPa SSW 6.1 km/h 9.0 km/h 53 % 0.0 mm
22:45 14.7 °C 6.0 °C 998.9 hPa South 8.7 km/h 12.2 km/h 54 % 0.0 mm
22:50 15.0 °C 6.0 °C 997.9 hPa SSW 9.0 km/h 13.7 km/h 56 % 0.0 mm
22:55 15.0 °C 6.0 °C 997.9 hPa SW 6.1 km/h 13.7 km/h 56 % 0.0 mm
23:01 14.9 °C 7.0 °C 997.9 hPa SW 3.2 km/h 14.0 km/h 57 % 0.0 mm
23:06 14.8 °C 6.0 °C 998.9 hPa SSW 6.4 km/h 14.0 km/h 57 % 0.0 mm
23:11 14.7 °C 6.0 °C 998.9 hPa Calm   10.5 km/h 57 % 0.0 mm
23:16 14.6 °C 6.0 °C 998.9 hPa SW 5.8 km/h 9.0 km/h 57 % 0.0 mm
23:21 14.5 °C 6.0 °C 998.9 hPa Calm   6.9 km/h 57 % 0.0 mm
23:26 14.4 °C 6.0 °C 998.9 hPa Calm   5.8 km/h 57 % 0.0 mm
23:31 14.3 °C 6.0 °C 998.9 hPa SSW 1.4 km/h 6.9 km/h 57 % 0.0 mm
23:36 14.2 °C 7.0 °C 997.9 hPa SSW 5.8 km/h 7.9 km/h 59 % 0.0 mm
23:41 14.1 °C 7.0 °C 997.9 hPa Calm   7.9 km/h 60 % 0.0 mm
23:46 14.1 °C 7.0 °C 997.9 hPa Calm   8.7 km/h 61 % 0.0 mm
23:51 14.0 °C 7.0 °C 998.9 hPa SSW 7.9 km/h 9.7 km/h 62 % 0.0 mm
23:56 14.0 °C 7.0 °C 998.9 hPa SW 6.9 km/h 13.0 km/h 63 % 0.0 mm
Le Gheer Warneton
Courtoisie de Weather Underground - 2.5 mb

Mise a jour : 17-12-17 03:05:15
Généré par Cumulus 1.9.4 (1099)